TimeEST,TemperatureF,Dew PointF,Humidity,Sea Level PressureIn,VisibilityMPH,Wind Direction,Wind SpeedMPH,Gust SpeedMPH,PrecipitationIn,Events,Conditions,WindDirDegrees,DateUTC
12:33 AM,53.6,51.8,94,30.05,0.8,Calm,Calm,-,N/A,,Overcast,0,2012-12-09 05:33:00
12:42 AM,53.6,53.6,100,30.04,1.2,Calm,Calm,-,N/A,,Overcast,0,2012-12-09 05:42:00
12:53 AM,53.1,52.0,96,30.04,1.5,Calm,Calm,-,N/A,,Mostly Cloudy,0,2012-12-09 05:53:00
1:06 AM,53.6,51.8,94,30.05,0.8,Calm,Calm,-,N/A,,Mostly Cloudy,0,2012-12-09 06:06:00
1:23 AM,53.6,51.8,94,30.04,1.8,Calm,Calm,-,N/A,,Mostly Cloudy,0,2012-12-09 06:23:00
1:31 AM,53.6,51.8,94,30.04,2.5,Calm,Calm,-,N/A,,Mostly Cloudy,0,2012-12-09 06:31:00
1:41 AM,53.6,51.8,94,30.05,3.0,Calm,Calm,-,N/A,,Overcast,0,2012-12-09 06:41:00
1:53 AM,53.1,52.0,96,30.04,4.0,Calm,Calm,-,N/A,,Mostly Cloudy,0,2012-12-09 06:53:00
2:17 AM,51.8,51.8,100,30.05,3.0,Calm,Calm,-,N/A,,Mostly Cloudy,0,2012-12-09 07:17:00
2:34 AM,53.6,51.8,94,30.05,2.5,Calm,Calm,-,N/A,,Mostly Cloudy,0,2012-12-09 07:34:00
2:42 AM,51.8,51.8,100,30.05,4.0,Calm,Calm,-,N/A,,Mostly Cloudy,0,2012-12-09 07:42:00
2:53 AM,52.0,51.1,97,30.05,3.0,Calm,Calm,-,N/A,,Overcast,0,2012-12-09 07:53:00
3:02 AM,53.6,51.8,94,30.05,4.0,Calm,Calm,-,N/A,,Overcast,0,2012-12-09 08:02:00
3:53 AM,54.0,53.1,97,30.05,4.0,Calm,Calm,-,N/A,,Overcast,0,2012-12-09 08:53:00
4:06 AM,55.4,53.6,94,30.05,5.0,Calm,Calm,-,N/A,,Overcast,0,2012-12-09 09:06:00
4:40 AM,55.4,53.6,94,30.05,1.8,Calm,Calm,-,N/A,,Overcast,0,2012-12-09 09:40:00
4:53 AM,55.0,54.0,96,30.05,1.8,Calm,Calm,-,N/A,,Overcast,0,2012-12-09 09:53:00
5:00 AM,55.4,53.6,94,30.05,2.5,Calm,Calm,-,N/A,,Overcast,0,2012-12-09 10:00:00
5:26 AM,55.4,55.4,100,30.06,1.2,Calm,Calm,-,N/A,,Overcast,0,2012-12-09 10:26:00
5:36 AM,55.4,55.4,100,30.06,0.8,Calm,Calm,-,N/A,,Overcast,0,2012-12-09 10:36:00
5:53 AM,55.9,55.0,97,30.07,0.8,Calm,Calm,-,N/A,,Overcast,0,2012-12-09 10:53:00
6:00 AM,55.4,55.4,100,30.07,1.0,Calm,Calm,-,N/A,,Overcast,0,2012-12-09 11:00:00
6:53 AM,57.0,55.9,96,30.09,1.5,Calm,Calm,-,N/A,,Overcast,0,2012-12-09 11:53:00
7:19 AM,57.2,55.4,94,30.09,1.8,Calm,Calm,-,N/A,,Overcast,0,2012-12-09 12:19:00
7:45 AM,57.2,55.4,94,30.10,2.0,Calm,Calm,-,0.01,,Overcast,0,2012-12-09 12:45:00
7:53 AM,57.0,55.9,96,30.10,2.0,Calm,Calm,-,0.01,,Overcast,0,2012-12-09 12:53:00
7:57 AM,57.2,55.4,94,30.10,1.8,Calm,Calm,-,N/A,,Overcast,0,2012-12-09 12:57:00
8:29 AM,57.2,57.2,100,30.10,1.8,Calm,Calm,-,N/A,,Mostly Cloudy,0,2012-12-09 13:29:00
8:53 AM,57.9,57.0,97,30.10,1.2,Calm,Calm,-,N/A,,Scattered Clouds,0,2012-12-09 13:53:00
9:05 AM,60.8,57.2,88,30.10,1.5,Calm,Calm,-,N/A,,Mostly Cloudy,0,2012-12-09 14:05:00
9:15 AM,60.8,59.0,94,30.10,2.5,Calm,Calm,-,N/A,,Overcast,0,2012-12-09 14:15:00
9:22 AM,60.8,59.0,94,30.11,3.0,Calm,Calm,-,N/A,,Overcast,0,2012-12-09 14:22:00
9:53 AM,63.0,60.1,90,30.11,8.0,SE,3.5,-,N/A,,Mostly Cloudy,140,2012-12-09 14:53:00
10:09 AM,64.4,60.8,88,30.11,10.0,Calm,Calm,-,N/A,,Partly Cloudy,0,2012-12-09 15:09:00
10:28 AM,64.4,60.8,88,30.11,10.0,SSE,3.5,-,N/A,,Mostly Cloudy,160,2012-12-09 15:28:00
10:53 AM,66.9,60.1,79,30.09,10.0,South,8.1,-,N/A,,Overcast,170,2012-12-09 15:53:00
11:41 AM,66.2,59.0,78,30.10,10.0,Calm,Calm,-,N/A,,Overcast,0,2012-12-09 16:41:00
11:53 AM,66.0,59.0,78,30.09,10.0,Variable,3.5,-,N/A,,Overcast,0,2012-12-09 16:53:00
12:00 PM,66.2,59.0,78,30.09,10.0,WSW,4.6,-,N/A,,Overcast,240,2012-12-09 17:00:00
12:53 PM,69.1,55.9,63,30.05,10.0,Variable,4.6,-,N/A,,Scattered Clouds,0,2012-12-09 17:53:00
1:53 PM,70.0,55.0,59,30.03,10.0,Variable,5.8,-,N/A,,Scattered Clouds,0,2012-12-09 18:53:00
2:53 PM,72.0,54.0,53,30.01,10.0,South,5.8,-,N/A,,Partly Cloudy,180,2012-12-09 19:53:00
3:53 PM,71.1,53.1,53,30.02,10.0,SW,8.1,18.4,N/A,,Mostly Cloudy,220,2012-12-09 20:53:00
4:53 PM,69.1,52.0,54,30.03,10.0,Variable,4.6,-,N/A,,Clear,0,2012-12-09 21:53:00
5:53 PM,60.1,53.1,78,30.03,10.0,Calm,Calm,-,N/A,,Clear,0,2012-12-09 22:53:00
6:53 PM,57.0,52.0,83,30.02,10.0,Calm,Calm,-,N/A,,Clear,0,2012-12-09 23:53:00
7:53 PM,54.0,51.1,90,30.03,10.0,Calm,Calm,-,N/A,,Clear,0,2012-12-10 00:53:00
8:53 PM,54.0,51.1,90,30.02,10.0,Calm,Calm,-,N/A,,Clear,0,2012-12-10 01:53:00
9:53 PM,54.0,51.1,90,30.01,10.0,SE,3.5,-,N/A,,Clear,140,2012-12-10 02:53:00
10:53 PM,55.0,53.1,93,30.00,10.0,Calm,Calm,-,N/A,,Clear,0,2012-12-10 03:53:00
11:53 PM,57.9,55.0,90,29.98,10.0,SE,3.5,-,N/A,,Clear,130,2012-12-10 04:53:00